Green Bay, WI

11:40 PM CST on February 24, 2017 (GMT -0600)
Austin Straubel International

Weather History for KGRB - January, 2013

Change the Weather History Date:

Wednesday, January 2, 2013

  Actual Average Record
Temperature  
Mean Temperature 15 °F 17 °F  
Max Temperature 22 °F 25 °F 49 °F (1897)
Min Temperature 8 °F 10 °F -20 °F (1979)
Degree Days  
Heating Degree Days 50 48  
Month to date heating degree days 111 96  
Since 1 July heating degree days 2862 3186  
Cooling Degree Days 0 0  
Month to date cooling degree days 0 0  
Year to date cooling degree days 0 0  
Moisture  
Dew Point 11 °F    
Average Humidity 75    
Maximum Humidity 84    
Minimum Humidity 66    
Precipitation  
Precipitation T in 0.04 in 0.58 in (1966)
Month to date precipitation T 0.08  
Year to date precipitation T 0.08  
Snow  
Snow 0.20 in 0.40 in 6.80 in (1892)
Month to date snowfall 0.2 0.8  
Since 1 July snowfall 24.5 18.1  
Snow Depth 9.00 in    
Sea Level Pressure  
Sea Level Pressure 30.11 in    
Wind  
Wind Speed 6 mph (SSW)    
Max Wind Speed 14 mph    
Max Gust Speed 16 mph    
Visibility 8 miles    
Events Snow    
T = Trace of Precipitation, MM = Missing Value Source: NWS Daily Summary

Daily Weather History Graph

Daily Weather History Graph

Search for Another Location

Airport or City:

Trip Planner

Search our weather history database for the weather conditions in past years. The results will help you decide how hot, cold, wet, or windy it might be!

Date:

Astronomy

Jan. 02, 2013 Rise Set
Actual Time 7:29 AM CST 4:24 PM CST
Civil Twilight 6:55 AM CST 4:57 PM CST
Nautical Twilight 6:19 AM CST 5:34 PM CST
Astronomical Twilight 5:43 AM CST 6:09 PM CST
Moon 10:11 PM CST (1/2) 9:57 AM CST (1/2)
Length of Visible Light 10h 02m
Length of Day
8h 55m
Waning Gibbous, 75% of the Moon is Illuminated
Jan 2
Waning Gibbous
Jan 4
Last Quarter
Jan 11
New
Jan 18
First Quarter
Jan 26
Full

Hourly Weather History & Observations

Time (CST) Temp. Windchill Dew Point Humidity Pressure Visibility Wind Dir Wind Speed Gust Speed Precip Events Conditions
12:53 AM 10.9 °F -0.8 °F 1.9 °F 67% 30.12 in 10.0 mi WSW 8.1 mph - N/A   Overcast
1:53 AM 12.0 °F 4.1 °F 3.9 °F 70% 30.12 in 10.0 mi SW 4.6 mph - N/A   Overcast
2:53 AM 12.9 °F 5.2 °F 5.0 °F 71% 30.13 in 10.0 mi SW 4.6 mph - N/A   Overcast
3:53 AM 12.9 °F 2.6 °F 5.0 °F 71% 30.13 in 10.0 mi SW 6.9 mph - N/A   Overcast
4:53 AM 14.0 °F 3.9 °F 7.0 °F 74% 30.14 in 10.0 mi WSW 6.9 mph - N/A   Overcast
5:53 AM 16.0 °F 5.3 °F 8.1 °F 71% 30.14 in 10.0 mi WSW 8.1 mph - N/A   Overcast
6:53 AM 16.0 °F 5.3 °F 9.0 °F 74% 30.14 in 10.0 mi WSW 8.1 mph - N/A   Overcast
7:53 AM 16.0 °F 10.4 °F 9.0 °F 74% 30.14 in 8.0 mi WSW 3.5 mph - N/A   Overcast
8:41 AM 16.0 °F 10.4 °F 10.9 °F 81% 30.11 in 2.5 mi WSW 3.5 mph - 0.00 in Snow Light Snow
8:53 AM 17.6 °F 12.3 °F 10.4 °F 73% 30.11 in 1.8 mi WSW 3.5 mph - N/A Snow Light Snow
9:17 AM 17.1 °F 11.7 °F 12.0 °F 81% 30.11 in 2.5 mi SW 3.5 mph - 0.00 in Snow Light Snow
9:53 AM 18.0 °F 11.1 °F 14.0 °F 84% 30.16 in 2.5 mi SSW 4.6 mph - 0.00 in Snow Light Snow
10:09 AM 18.0 °F 11.1 °F 14.0 °F 84% 30.11 in 3.0 mi SSW 4.6 mph - 0.00 in Snow Light Snow
10:53 AM 19.9 °F 12.1 °F 15.1 °F 81% 30.15 in 6.0 mi South 5.8 mph - 0.00 in   Haze
11:53 AM 21.0 °F 12.4 °F 15.1 °F 78% 30.12 in 6.0 mi SSE 6.9 mph - N/A   Haze
12:53 PM 21.0 °F 10.6 °F 15.1 °F 78% 30.10 in 8.0 mi South 9.2 mph - N/A   Overcast
1:53 PM 21.0 °F 10.6 °F 15.1 °F 78% 30.09 in 10.0 mi South 9.2 mph - N/A   Mostly Cloudy
2:53 PM 21.0 °F 12.4 °F 12.0 °F 68% 30.09 in 10.0 mi South 6.9 mph - N/A   Mostly Cloudy
3:00 PM 21.0 °F 11.4 °F 12.9 °F 71% 30.05 in 10.0 mi South 8.1 mph - N/A   Mostly Cloudy
3:53 PM 21.0 °F 10.6 °F 12.9 °F 71% 30.09 in 10.0 mi South 9.2 mph - N/A   Overcast
4:53 PM 21.0 °F 13.4 °F 12.9 °F 71% 30.09 in 10.0 mi South 5.8 mph - N/A   Overcast
5:53 PM 21.0 °F 13.4 °F 15.1 °F 78% 30.09 in 9.0 mi South 5.8 mph - N/A   Overcast
6:53 PM 21.0 °F 13.4 °F 15.1 °F 78% 30.09 in 9.0 mi South 5.8 mph - N/A   Overcast
7:53 PM 21.0 °F 16.2 °F 14.0 °F 74% 30.07 in 9.0 mi SSW 3.5 mph - N/A   Overcast
8:53 PM 19.9 °F - 14.0 °F 78% 30.06 in 8.0 mi Calm Calm - N/A   Overcast
10:53 PM 19.9 °F 13.4 °F 12.0 °F 71% 30.05 in 9.0 mi SW 4.6 mph - N/A   Overcast
11:53 PM 19.9 °F 10.1 °F 12.0 °F 71% 30.06 in 8.0 mi WSW 8.1 mph - N/A   Overcast